CAPE
0 0 0 0 0 0 0 0 0 0 0 0 531 736 691 653 890 904 1460 1783 1997 1941 2085 2185 1972 1800 1689 1582 1336 1183 1213 1278 1286 1380 1418 1562 1586 1471 1321 1140 1001 645 84 27 174 124 50 0 0
0 0 0 0 0 0 0 0 0 0 0 0 826 830 847 849 761 1544 2140 1930 1804 1819 1810 1986 2109 1831 1683 1579 1325 1112 1225 1317 1356 1436 1412 1398 1489 1433 1145 995 826 299 49 78 101 36 0 0 0
0 0 0 0 0 0 0 0 0 0 0 0 0 83 256 196 135 327 1888 1816 1676 1535 1580 2008 2147 1884 1779 1582 1333 1211 1254 1310 1361 1462 1365 1296 1285 1353 1158 928 761 265 18 82 60 13 0 0 0
0 0 0 0 0 0 0 0 0 0 0 0 0 0 0 1 0 1534 2044 1829 1407 1275 1412 2329 2209 2052 1870 1670 1413 1286 1342 1356 1410 1425 1463 1289 1116 1103 918 814 752 501 126 109 64 0 0 0 13
0 0 0 0 0 0 0 0 0 0 0 0 0 0 0 0 6 2414 2215 1721 1382 1370 1558 2108 2276 2142 2009 1761 1440 1379 1405 1396 1474 1556 1423 1405 1257 1068 892 780 644 527 331 191 0 0 0 0 14
0 0 0 0 0 0 0 0 0 0 0 0 0 0 0 0 0 23 2083 1821 1757 1573 1657 1952 2312 2172 1942 1767 1493 1376 1366 1409 1506 1498 1496 1423 1260 1166 906 780 693 818 661 367 172 51 0 0 56
0 0 0 0 0 0 0 0 0 0 0 0 0 0 0 0 0 0 1516 1845 1770 1583 1476 1743 1919 1994 1980 1700 1457 1392 1372 1365 1431 1395 1326 1237 1198 977 811 765 821 730 612 414 240 38 0 0 97
0 0 0 0 0 0 0 0 0 0 0 0 0 0 0 0 0 0 1265 1460 1421 1336 1370 1539 1732 1689 1565 1423 1569 1494 1414 1417 1389 1362 1283 1133 1072 878 718 523 721 792 649 465 190 48 22 0 144
0 0 0 0 0 0 0 0 0 0 0 0 0 0 0 0 0 0 985 1408 1201 1086 964 1344 1465 1346 1292 1246 1321 1493 1409 1455 1382 1286 1158 729 352 374 317 372 633 902 735 484 211 102 80 83 362
0 0 0 0 0 0 0 0 0 0 0 0 0 0 0 0 0 0 0 1071 1370 1159 774 1091 1126 1035 1190 1395 1228 1094 960 1078 859 718 657 216 71 101 217 288 666 925 781 509 292 184 188 531 212
0 0 0 0 0 0 0 0 0 0 0 0 0 0 0 0 0 0 0 0 754 1283 880 705 893 870 1020 1200 1041 932 761 697 434 402 313 60 10 48 117 28 172 311 382 17 34 21 3 149 93
0 0 0 0 0 0 0 0 0 0 0 0 0 0 0 0 0 0 0 0 34 923 724 381 462 446 468 934 876 768 706 500 238 195 120 0 0 0 0 0 0 51 0 0 0 0 1 80 75
0 0 0 0 0 0 0 0 0 0 0 0 0 0 0 0 0 0 0 0 639 1014 538 230 157 26 0 785 665 658 563 373 211 88 66 0 0 0 0 0 0 0 0 0 0 0 28 228 0
0 0 0 0 0 0 0 0 0 0 0 0 0 0 0 0 0 0 0 0 4 1077 860 420 298 152 140 704 469 569 490 327 149 74 47 10 0 0 0 0 0 0 0 0 0 0 94 4 0
0 0 0 0 0 0 0 0 0 0 0 0 0 0 0 0 0 0 0 0 0 543 1138 934 492 308 308 385 193 122 294 289 181 100 59 63 0 0 0 0 0 0 0 0 0 0 300 22 0
0 0 0 0 0 0 0 0 0 0 0 0 0 0 0 0 0 0 0 0 0 0 1347 1254 1073 321 105 700 291 1 0 48 94 100 69 114 43 0 0 0 0 0 0 0 7 214 259 104 3
0 0 0 0 0 0 0 0 0 0 0 0 0 0 0 0 0 0 0 0 0 0 70 1423 1501 921 518 426 728 168 11 6 0 4 26 126 98 17 0 0 0 0 0 62 25 196 261 139 71
0 0 0 0 0 0 0 0 0 0 0 0 0 0 0 0 0 0 0 0 0 0 0 227 1483 1617 1582 1100 933 620 326 65 42 0 18 129 109 24 22 0 0 0 6 74 85 257 201 178 126
0 0 0 0 0 0 0 0 0 0 0 0 0 0 0 0 0 0 0 0 0 0 0 0 76 1212 1463 1323 1031 921 907 752 629 136 66 113 48 41 43 0 0 97 107 144 124 223 202 139 34
0 0 0 0 0 0 0 0 0 0 0 0 0 0 0 0 0 0 0 0 0 0 0 0 0 0 589 1605 1357 966 859 790 683 398 290 181 62 53 53 9 1 258 268 52 247 305 255 140 0
0 0 0 0 0 0 0 0 0 0 0 0 0 0 0 0 0 0 0 0 0 0 0 0 0 0 0 802 1446 748 520 474 591 449 301 149 146 71 23 17 100 309 262 126 312 276 430 83 0
0 0 0 0 0 0 0 0 0 0 0 0 0 0 0 0 0 0 0 0 0 0 0 0 0 12 21 4 1108 1375 1097 960 572 465 557 334 142 42 45 47 355 416 390 361 385 276 182 0 0
0 0 0 0 0 0 0 0 0 0 0 0 0 0 0 0 0 0 0 0 0 0 0 0 0 12 34 30 501 1222 1078 817 679 431 403 437 203 55 77 52 478 476 460 389 446 395 238 0 0
0 0 0 0 0 0 0 0 0 0 0 0 0 0 0 0 0 0 0 0 0 0 0 0 0 0 65 59 137 834 1098 1077 924 539 378 351 265 201 132 70 284 463 403 396 406 447 273 0 0
0 0 0 0 0 0 0 0 0 0 0 0 0 0 0 0 0 0 0 0 0 0 0 0 0 0 0 144 339 900 1150 907 946 797 608 441 386 224 73 91 305 432 517 469 447 413 229 28 0
0 0 0 0 0 0 0 0 0 0 0 0 0 0 0 0 0 0 0 0 0 0 0 0 0 0 0 0 29 585 955 828 780 799 591 458 370 214 95 136 361 326 400 327 378 304 52 0 0
0 0 0 0 0 0 0 0 0 0 0 0 0 0 0 0 0 0 0 0 0 0 0 0 0 0 0 0 7 516 838 972 805 820 615 447 373 290 112 234 293 325 331 354 251 133 0 0 0
0 0 0 0 0 0 0 0 0 0 0 0 0 0 0 0 0 0 0 0 0 0 0 0 0 0 0 0 0 176 912 1044 946 803 699 497 365 253 200 248 271 158 259 247 182 18 0 0 0
0 0 0 0 0 2 0 0 0 0 0 0 0 0 0 0 0 0 0 0 0 0 0 0 0 0 0 0 0 112 865 1053 859 744 689 572 380 249 214 90 78 231 193 118 69 1 0 0 0
0 0 0 0 0 0 0 0 0 0 0 0 0 0 0 0 0 0 0 0 0 0 0 0 0 0 0 0 12 495 441 653 770 818 712 588 392 241 177 47 28 125 142 20 0 0 0 0 0
CIN
0 0 0 0 0 0 0 0 0 0 0 0 -118 -152 -135 -117 -85 -113 -273 -263 -306 -263 -235 -172 -180 -185 -191 -205 -230 -254 -263 -237 -206 -111 -99 -79 -84 -116 -114 -125 -109 -132 -269 -298 -197 -201 -227 0 0
0 0 0 0 0 0 0 0 0 0 0 0 -95 -117 -127 -142 -165 -224 -216 -313 -339 -315 -291 -219 -170 -188 -194 -196 -219 -254 -228 -230 -214 -113 -104 -102 -72 -90 -136 -140 -147 -228 -308 -259 -221 -255 0 0 0
0 0 0 0 0 0 0 0 0 0 0 0 0 -33 -148 -165 -188 -232 -221 -295 -363 -363 -321 -238 -190 -192 -184 -195 -220 -221 -201 -193 -181 -135 -115 -128 -103 -74 -122 -157 -164 -254 -321 -261 -257 -119 0 0 0
0 0 0 0 0 0 0 0 0 0 0 0 0 -4 0 -6 0 -126 -191 -265 -342 -390 -342 -197 -203 -193 -184 -186 -209 -203 -178 -159 -145 -117 -109 -111 -129 -91 -112 -157 -174 -218 -296 -250 -261 0 0 0 -125
0 0 0 0 0 0 0 0 0 0 0 0 0 0 0 0 -31 -129 -178 -214 -304 -311 -254 -171 -166 -163 -155 -164 -185 -171 -142 -141 -112 -87 -100 -121 -116 -112 -109 -137 -162 -190 -250 -263 0 0 0 0 -120
0 0 0 0 0 0 0 0 0 0 0 0 0 0 0 0 0 -125 -137 -217 -287 -312 -238 -164 -113 -131 -130 -127 -151 -149 -136 -120 -83 -63 -73 -102 -131 -121 -124 -128 -138 -122 -156 -223 -258 -272 0 0 -103
0 0 0 0 0 0 0 0 0 0 0 0 0 0 0 0 0 0 -164 -215 -272 -280 -273 -196 -160 -137 -106 -111 -136 -138 -127 -114 -93 -80 -64 -84 -103 -107 -125 -131 -110 -107 -147 -193 -235 -271 0 0 -178
0 0 0 0 0 0 0 0 0 0 0 0 0 0 0 0 0 0 -269 -253 -249 -243 -274 -228 -180 -169 -156 -128 -94 -106 -109 -108 -102 -100 -94 -104 -147 -149 -139 -177 -152 -114 -142 -180 -227 -272 -250 0 -154
0 0 0 0 0 0 0 0 0 0 0 0 0 0 0 0 0 0 -214 -203 -221 -215 -229 -177 -174 -186 -167 -156 -117 -82 -80 -72 -83 -98 -124 -203 -316 -292 -290 -244 -161 -113 -140 -168 -218 -237 -235 -189 -116
0 0 0 0 0 0 0 0 0 0 0 0 0 0 0 0 0 0 0 -118 -147 -186 -253 -220 -198 -179 -166 -129 -145 -148 -132 -94 -126 -160 -193 -365 -477 -452 -354 -287 -143 -101 -123 -159 -201 -220 -204 -116 -154
0 0 0 0 0 0 0 0 0 0 0 0 0 0 0 0 0 0 0 0 -108 -175 -214 -248 -232 -228 -166 -147 -141 -164 -173 -155 -225 -243 -276 -461 -237 -383 -440 -359 -316 -240 -207 -281 -35 -39 -43 -233 -204
0 0 0 0 0 0 0 0 0 0 0 0 0 0 0 0 0 0 0 0 -63 -172 -242 -307 -280 -300 -257 -182 -178 -171 -176 -211 -291 -308 -335 0 0 0 0 0 0 -415 0 0 0 0 -5 -258 -200
0 0 0 0 0 0 0 0 0 0 0 0 0 0 0 0 0 0 0 0 -183 -175 -206 -300 -345 -180 0 -162 -192 -203 -202 -241 -300 -363 -389 0 0 0 0 0 0 0 0 0 0 0 -125 -164 0
0 0 0 0 0 0 0 0 0 0 0 0 0 0 0 0 0 0 0 0 -15 -165 -166 -220 -258 -324 -323 -190 -236 -226 -236 -282 -357 -388 -438 -515 0 0 0 0 0 0 0 0 0 0 -237 -114 0
0 0 0 0 0 0 0 0 0 0 0 0 0 0 0 0 0 0 0 0 0 -180 -153 -191 -214 -245 -270 -240 -327 -349 -272 -254 -301 -375 -406 -408 0 0 -1 0 0 0 0 0 0 0 -162 -207 0
0 0 0 0 0 0 0 0 0 0 0 0 0 0 0 0 0 0 0 0 0 0 -141 -170 -132 -222 -230 -159 -253 -27 -12 -275 -342 -320 -364 -348 -405 0 0 0 0 0 0 0 -252 -197 -173 -204 -174
0 0 0 0 0 0 0 0 0 0 0 0 0 0 0 0 0 0 0 0 0 0 -169 -147 -140 -161 -221 -213 -174 -248 -160 -107 0 -200 -335 -296 -302 -349 0 0 0 0 -11 -277 -341 -216 -143 -154 -205
0 0 0 0 0 0 0 0 0 0 0 0 0 0 0 0 0 0 0 0 0 0 0 -191 -146 -124 -142 -169 -159 -161 -169 -219 -85 0 -316 -230 -233 -296 -302 0 0 0 -313 -226 -280 -166 -182 -158 -163
0 0 0 0 0 0 0 0 0 0 0 0 0 0 0 0 0 0 0 0 0 0 0 0 -272 -150 -165 -144 -137 -122 -83 -86 -103 -159 -271 -207 -201 -219 -247 0 0 -203 -183 -199 -219 -180 -129 -142 -264
0 0 0 0 0 0 0 0 0 0 0 0 0 0 0 0 0 0 0 0 0 0 0 0 0 0 -241 -151 -153 -120 -101 -102 -106 -147 -142 -188 -214 -182 -183 -218 -35 -151 -137 -241 -164 -111 -114 -143 0
0 0 0 0 0 0 0 0 0 0 0 0 0 0 0 0 0 0 0 0 0 0 0 0 0 0 0 -204 -156 -195 -197 -163 -102 -117 -128 -143 -189 -221 -225 -285 -169 -147 -125 -148 -143 -138 -96 -151 0
0 0 0 0 0 0 0 0 0 0 0 0 0 0 0 0 0 0 0 0 0 0 0 0 0 -471 -399 -31 -176 -115 -98 -80 -102 -107 -106 -144 -154 -203 -265 -228 -149 -131 -132 -133 -129 -159 -146 0 0
0 0 0 0 0 0 0 0 0 0 0 0 0 0 0 0 0 0 0 0 0 0 0 0 0 -626 -546 -406 -208 -146 -125 -136 -129 -146 -126 -97 -173 -148 -163 -138 -62 -137 -128 -132 -141 -150 -138 0 0
0 0 0 0 0 0 0 0 0 0 0 0 0 0 0 0 0 0 0 0 0 0 0 0 0 0 -432 -442 -357 -162 -122 -120 -82 -80 -104 -81 -84 -103 -84 -46 -53 -71 -134 -121 -129 -147 -156 0 0
0 0 0 0 0 0 0 0 0 0 0 0 0 0 0 0 0 0 0 0 0 0 0 0 0 0 0 -269 -283 -142 -79 -58 -55 -45 -34 -59 -39 -36 -71 -65 -51 -16 -98 -109 -111 -143 -156 -195 0
0 0 0 0 0 0 0 0 0 0 0 0 0 0 0 0 0 0 0 0 0 0 0 0 0 0 0 0 -169 -244 -119 -103 -83 -54 -48 -79 -48 -52 -104 -41 -21 -49 -120 -113 -128 -144 -180 0 0
0 0 0 0 0 0 0 0 0 0 0 0 0 0 0 0 0 0 0 0 0 0 0 0 0 0 0 0 -152 -182 -135 -119 -74 -94 -90 -73 -74 -68 -62 -43 -32 -20 -67 -92 -140 -187 0 0 0
0 0 0 0 0 0 0 0 0 0 0 0 0 0 0 0 0 0 0 0 0 0 0 0 0 0 0 0 0 -256 -124 -123 -103 -96 -73 -74 -95 -89 -70 -27 -10 -5 -9 -73 -143 -174 0 0 0
0 0 0 0 0 -4 0 0 0 0 0 0 0 0 0 0 0 0 0 0 0 0 0 0 0 0 0 0 0 -284 -121 -107 -133 -103 -81 -60 -77 -63 -59 -91 -37 -1 -2 -73 -184 -104 0 0 0
0 0 0 0 0 -1 -1 0 0 0 0 0 0 0 0 0 0 0 0 0 0 0 0 0 0 0 0 0 -71 -144 -162 -135 -129 -115 -110 -52 -43 -52 -70 -98 -73 -5 -4 -170 -6 0 0 0 0
Wind_Speed
7 7 1 4 6 6 4 7 4 8 3 6 9 10 7 5 4 5 3 16 18 14 14 13 16 17 17 17 16 16 19 19 17 13 14 13 13 15 14 14 12 11 10 8 6 3 2 4 6
4 4 4 2 6 3 7 6 5 6 4 7 14 14 11 9 5 10 5 11 22 16 14 14 18 17 17 16 16 15 15 18 18 15 14 14 12 12 13 12 12 11 9 7 5 2 1 3 5
3 1 4 4 4 5 5 5 9 14 9 4 6 7 5 3 3 4 9 17 17 15 13 15 20 18 18 17 16 15 15 16 16 17 15 15 13 10 11 11 11 11 10 7 5 2 2 2 6
3 5 5 5 5 9 6 12 7 7 7 9 7 8 5 2 3 8 16 15 12 11 10 18 21 21 20 19 17 16 16 15 15 16 16 14 13 10 8 10 10 11 10 7 5 4 5 1 6
4 3 4 1 7 6 6 9 13 8 2 6 2 5 6 7 7 18 16 15 15 9 7 10 18 19 19 19 19 18 16 16 15 15 15 15 13 11 8 8 9 9 10 8 6 6 5 3 6
4 4 5 2 5 6 9 8 5 5 5 8 9 5 4 4 9 7 11 14 14 15 11 10 14 17 18 18 19 18 17 16 15 14 14 14 14 12 10 9 8 8 8 8 7 6 4 3 5
5 5 3 4 5 6 6 10 8 5 6 7 1 5 1 11 6 4 9 10 12 12 14 11 11 14 17 17 18 18 17 17 16 14 12 12 11 10 9 9 8 7 7 7 7 6 4 1 3
5 5 2 3 4 6 6 6 4 9 4 5 2 4 4 6 8 9 8 8 8 5 10 11 10 11 12 11 17 17 18 18 17 16 15 13 14 12 10 10 9 9 9 8 8 6 6 2 1
4 5 2 4 5 7 7 7 9 5 5 4 3 4 2 1 7 12 7 5 6 7 3 3 10 11 9 10 12 14 16 15 16 15 16 12 5 7 9 9 10 10 10 9 8 8 9 3 4
5 5 7 7 4 4 4 5 5 7 11 8 9 8 5 6 6 7 8 6 5 6 8 9 10 9 9 9 11 9 9 6 6 5 7 5 6 6 7 8 11 11 10 9 8 8 10 5 3
4 6 6 5 5 5 2 2 4 3 5 7 8 10 8 3 5 6 6 9 11 10 7 8 9 10 8 7 7 5 4 4 4 5 4 3 4 4 4 3 4 4 8 3 5 4 4 6 5
2 2 2 5 4 4 7 3 6 3 9 8 9 7 5 5 2 4 2 5 3 12 11 8 8 8 7 6 7 6 6 6 4 5 6 4 3 4 4 4 5 5 4 5 5 3 4 4 4
2 4 9 9 8 7 6 7 5 7 11 9 10 10 10 3 5 3 2 2 6 9 9 9 8 6 5 7 5 7 7 7 7 6 7 5 5 5 4 4 4 5 4 4 4 4 3 3 4
4 8 10 7 12 8 5 10 4 12 11 9 8 11 9 7 4 2 4 4 5 10 12 12 12 11 8 9 7 8 7 8 8 7 7 8 5 4 5 5 5 4 5 4 4 4 4 4 6
3 8 10 5 7 4 3 6 10 16 9 9 9 6 4 3 3 6 3 2 6 5 10 12 11 7 7 7 8 5 7 8 8 8 10 10 8 6 6 5 5 6 5 4 4 4 4 5 5
5 4 4 9 6 4 6 8 10 11 6 10 8 8 8 7 8 7 8 6 4 9 8 8 9 10 7 7 6 4 4 4 6 7 8 11 10 9 6 5 5 5 4 4 3 5 5 5 5
6 2 4 8 6 5 1 7 9 11 8 10 8 9 8 9 7 8 9 10 9 9 11 10 8 9 9 7 5 5 5 4 4 4 6 9 11 10 7 6 6 5 3 4 5 2 6 5 3
5 4 4 7 7 9 7 7 7 8 7 9 8 8 9 9 11 10 10 9 8 8 8 10 10 9 9 7 5 3 4 5 5 5 5 9 9 10 8 5 6 5 4 4 4 5 2 4 6
3 3 6 7 10 4 5 9 12 9 7 10 9 9 9 11 12 10 9 9 9 6 7 8 8 9 5 3 3 3 5 4 5 7 10 9 8 10 9 7 5 5 6 7 8 4 5 2 3
4 5 7 5 4 6 9 18 16 14 9 6 10 17 14 6 7 8 5 4 4 5 7 6 8 8 6 4 3 4 4 4 3 2 3 10 11 11 10 8 6 6 4 6 7 6 3 2 4
3 2 4 8 5 3 7 10 5 10 6 5 7 7 6 9 8 6 7 7 5 7 8 8 9 10 9 8 3 2 3 2 1 3 3 5 10 13 10 10 7 6 5 7 8 7 7 5 3
4 4 5 8 7 5 4 9 8 5 7 5 7 8 4 7 6 5 6 5 5 3 4 5 7 7 8 7 6 8 8 7 5 7 7 6 5 5 5 4 7 7 5 6 8 6 4 5 6
7 4 4 5 7 3 5 2 8 5 5 7 10 9 8 6 1 3 4 2 5 6 6 5 2 4 8 8 8 8 6 7 5 3 6 9 6 5 5 1 6 7 5 6 9 7 6 4 5
3 3 6 4 3 1 6 3 7 4 5 4 6 9 10 9 9 8 7 8 6 3 1 2 3 3 4 7 7 8 10 8 6 6 7 7 8 10 11 12 8 7 7 7 8 8 9 6 5
8 8 5 6 5 6 5 5 9 2 5 4 4 8 7 5 6 5 6 5 5 7 6 4 3 7 7 6 6 7 8 9 9 8 8 9 8 8 13 15 12 11 9 8 8 8 7 7 6
4 7 6 4 4 6 5 6 7 8 6 7 5 6 6 6 4 4 2 2 4 6 6 8 9 8 7 6 8 7 10 8 10 11 10 8 9 11 15 14 12 13 9 8 7 6 5 6 6
4 5 7 4 4 2 6 6 8 5 6 5 2 4 5 5 7 7 7 5 5 4 6 7 7 8 9 9 8 8 7 9 10 9 9 9 12 12 15 14 11 10 9 12 10 7 7 6 5
5 3 5 3 4 6 5 5 7 5 3 6 6 8 9 9 9 8 6 7 7 7 5 5 7 8 9 9 8 8 8 10 10 8 10 11 13 14 16 14 13 12 12 12 12 8 7 8 5
6 3 3 2 4 5 4 8 8 7 9 9 9 9 11 11 9 9 8 6 5 4 5 6 5 7 8 8 9 8 7 8 8 8 11 13 13 16 17 14 15 13 16 12 11 9 10 10 8
7 12 5 4 8 5 4 12 7 7 9 9 10 19 16 11 10 6 5 4 3 5 6 7 6 6 7 7 8 8 7 6 7 9 11 13 14 15 16 16 17 13 15 11 11 12 11 12 11
Wind_Direction
320 303 44 38 51 61 276 276 263 288 265 6 67 92 122 75 144 192 72 174 133 153 149 153 151 146 142 138 138 137 132 126 120 120 115 108 108 112 116 119 119 122 124 123 117 107 62 22 37
318 337 44 74 83 34 274 263 303 291 255 130 95 86 57 72 59 104 90 146 144 151 149 153 153 150 144 141 141 138 136 131 130 130 126 119 116 120 123 123 126 129 134 137 135 138 349 350 33
290 77 81 93 110 187 227 280 295 309 311 355 99 94 103 122 46 99 132 149 146 150 154 155 153 150 147 144 142 141 139 137 134 136 135 132 131 133 130 131 135 138 145 154 156 180 259 318 35
27 16 24 87 247 254 233 280 312 291 317 360 132 73 40 349 104 139 135 142 140 143 155 158 155 153 151 148 146 144 143 144 140 142 143 142 139 136 140 144 147 151 152 166 179 214 249 0 42
39 59 60 22 268 276 281 256 258 254 74 355 42 60 75 2 79 130 142 150 149 134 142 158 153 152 152 151 149 149 150 148 150 152 152 148 146 145 156 157 159 158 158 172 203 224 251 27 40
29 92 60 248 269 305 299 313 329 85 7 357 47 84 70 268 55 102 173 157 147 143 146 155 157 153 154 155 155 155 155 155 157 160 157 153 151 156 164 167 171 169 176 187 213 240 256 43 54
119 86 210 269 273 337 326 327 24 31 20 6 132 101 168 16 334 116 119 132 139 144 147 156 160 159 160 161 159 159 160 161 159 158 160 155 151 159 169 168 175 190 196 209 226 249 264 350 86
109 92 317 276 321 280 314 5 344 22 30 315 48 35 318 275 333 86 84 90 103 118 147 152 158 160 158 162 164 165 167 165 164 161 161 168 162 167 179 183 184 197 206 220 238 251 254 218 149
101 60 302 265 4 280 311 25 334 299 50 336 21 145 265 358 45 68 77 71 97 119 111 146 160 164 160 157 166 167 172 173 171 169 170 169 164 173 181 190 199 205 212 227 238 256 267 194 206
101 113 231 209 272 281 307 22 338 13 344 337 342 346 44 29 59 44 119 182 172 159 171 167 161 175 165 166 166 160 172 172 175 180 181 172 168 173 180 195 209 216 224 233 240 248 271 274 194
195 199 200 256 250 343 319 302 309 30 322 279 277 302 317 7 52 55 353 148 200 190 171 182 171 166 180 169 170 163 157 171 170 168 181 188 179 189 178 183 207 210 231 235 245 247 249 267 138
294 199 224 276 4 347 307 275 317 247 247 240 266 256 277 336 247 140 54 0 115 168 173 177 174 177 180 153 168 169 169 171 172 184 181 168 190 199 205 198 197 204 212 216 228 228 245 250 189
80 317 335 320 302 277 287 285 260 268 264 263 272 284 280 265 234 269 183 3 122 129 156 166 166 176 185 165 171 168 177 184 189 189 190 178 201 205 196 211 196 209 201 211 226 217 250 241 136
306 324 301 300 298 272 252 279 56 277 268 276 270 270 269 247 219 300 335 291 155 147 158 166 183 190 180 181 187 183 185 189 184 192 193 195 196 197 196 212 213 215 207 214 212 196 195 158 142
283 314 320 303 290 291 140 314 252 258 285 300 275 202 202 254 258 203 202 164 160 175 170 178 185 177 175 187 188 192 191 186 198 198 198 193 199 198 201 208 220 221 215 200 236 200 134 132 148
296 70 1 292 340 273 119 265 280 273 301 253 222 218 210 211 215 209 186 175 201 136 186 182 189 191 180 190 198 204 206 206 199 206 200 197 204 204 205 201 216 223 201 198 181 166 145 148 158
10 246 290 311 286 278 209 266 279 303 304 274 264 259 231 231 229 231 223 198 189 173 165 190 197 194 189 211 186 190 207 221 247 206 204 202 206 208 192 208 210 219 196 192 157 154 157 154 146
253 274 276 286 276 343 324 281 288 291 307 283 277 261 252 253 236 224 226 232 215 195 184 172 185 197 185 189 181 191 208 227 204 224 211 216 206 207 194 198 203 188 161 198 172 159 159 164 153
239 253 267 272 302 341 267 284 297 277 289 282 277 258 233 237 240 233 226 226 217 213 206 196 182 200 162 153 177 186 204 213 222 219 210 217 211 209 200 199 195 190 184 178 173 142 150 94 121
297 297 299 290 286 331 312 293 290 283 264 263 278 275 249 223 225 232 217 169 180 225 227 231 215 216 199 182 178 170 173 213 179 180 220 210 200 211 206 191 194 202 174 168 160 150 127 99 167
299 242 275 277 294 310 297 292 274 293 282 255 275 309 240 222 222 185 154 176 167 198 209 215 221 219 216 213 147 88 46 25 181 186 183 228 218 207 207 186 181 186 183 180 172 162 151 146 196
222 227 284 304 346 302 52 289 331 285 296 257 315 332 227 191 192 177 198 199 157 194 185 195 219 236 270 233 193 188 198 203 209 218 218 199 205 235 211 218 174 176 186 185 176 173 155 128 168
230 239 269 276 251 36 315 39 273 314 329 327 329 334 27 353 166 242 246 173 103 61 40 33 17 253 242 230 225 210 203 202 198 183 202 214 191 224 202 269 242 181 195 195 176 162 156 160 149
252 5 336 330 110 74 194 193 280 305 299 323 356 354 39 37 51 45 39 53 31 21 39 343 356 317 275 245 242 225 217 203 194 194 206 207 208 208 222 209 228 222 191 190 189 177 166 167 155
36 48 337 346 3 221 297 9 243 270 247 180 103 70 89 56 46 36 49 43 18 10 4 333 300 313 317 285 248 227 228 217 212 216 216 208 200 214 206 208 210 224 198 196 195 172 163 166 167
265 156 162 255 231 256 298 239 255 216 244 265 139 142 155 162 183 169 169 16 5 359 350 342 330 311 311 288 269 246 238 217 218 213 209 219 203 206 201 202 208 223 173 191 189 175 177 169 170
292 291 209 210 246 350 225 283 316 227 256 192 274 196 214 225 209 181 210 231 258 273 291 303 300 314 312 293 283 282 267 231 224 201 210 221 205 206 207 194 196 242 188 188 187 167 180 153 154
157 242 310 357 299 249 272 236 228 245 215 185 201 226 245 226 219 217 219 210 207 238 253 269 285 275 286 297 284 271 244 245 221 204 198 211 209 198 197 185 177 209 236 190 180 162 174 158 142
313 287 247 249 223 239 241 254 225 216 221 245 239 243 246 243 225 210 201 201 226 308 323 303 313 321 312 318 304 284 271 250 233 205 212 200 196 200 192 177 182 202 206 193 167 165 166 152 140
228 262 182 172 278 263 264 262 231 271 277 274 262 297 299 225 214 186 171 176 229 255 280 296 302 296 303 294 292 287 288 262 234 201 205 201 194 196 179 175 179 208 201 179 162 168 170 153 152